• MPC Preparation (Info)

  • MPEC 2018-N37 : 2018 ND1

    The following Minor Planet Electronic Circular may be linked-to from your own Web pages, but must not otherwise be redistributed electronically.

    A form allowing access to any MPEC is at the bottom of this page.


    Read MPEC 2018-N36 Read MPEC 2018-N38


    M.P.E.C. 2018-N37                                Issued 2018 July 10, 16:38 UT
    
         The Minor Planet Electronic Circulars contain information on unusual
             minor planets and routine data on comets.  They are published
        on behalf of Division F of the International Astronomical Union by the
              Minor Planet Center, Smithsonian Astrophysical Observatory,
                              Cambridge, MA 02138, U.S.A.
    
                 Prepared using the Tamkin Foundation Computer Network
    
                                  MPC@CFA.HARVARD.EDU
                URL https://www.minorplanetcenter.net/    ISSN 1523-6714
    
                                       2018 ND1
    
    Observations:
         K18N01D* C2018 07 07.44872 03 08 23.51 +39 40 40.3          19.0 GUEN037G96
         K18N01D  C2018 07 07.45398 03 08 24.77 +39 41 09.0          18.7 GUEN037G96
         K18N01D  C2018 07 07.45925 03 08 26.01 +39 41 37.8          18.9 GUEN037G96
         K18N01D  C2018 07 07.46450 03 08 27.34 +39 42 05.2          18.2 GUEN037G96
         K18N01D KC2018 07 08.06009403 10 52.90 +40 35 31.8          19.6 GVEN037L01
         K18N01D KC2018 07 08.06151203 10 53.23 +40 35 38.9          19.4 GVEN037L01
         K18N01D KC2018 07 08.06292503 10 53.56 +40 35 46.2          19.3 GVEN037L01
         K18N01D KC2018 07 08.06320 03 10 53.63 +40 35 48.2          19   GVEN037204
         K18N01D KC2018 07 08.06434303 10 53.96 +40 35 54.5          19.4 GVEN037L01
         K18N01D KC2018 07 08.06971 03 10 55.27 +40 36 22.8                VEN037204
         K18N01D HC2018 07 08.08155 03 10 58.25 +40 37 26.5                VEN037204
         K18N01D KC2018 07 08.08165 03 10 58.15 +40 37 26.2                VEN037J95
         K18N01D KC2018 07 08.08849 03 10 59.89 +40 38 03.0          19.1 GVEN037J95
         K18N01D KC2018 07 08.36262303 12 08.49 +41 02 32.1          19.5 VuEN037H21
         K18N01D KC2018 07 08.36524803 12 09.14 +41 02 46.2          19.9 VuEN037H21
         K18N01D KC2018 07 08.36827603 12 09.88 +41 03 02.5          19.7 VuEN037H21
         K18N01D KC2018 07 08.37211403 12 10.84 +41 03 23.5          19.6 VuEN037H21
         K18N01D  C2018 07 08.46399 03 12 34.01 +41 11 35.0          18.7 GUEN037G96
         K18N01D  C2018 07 08.46620 03 12 34.59 +41 11 47.1          19.3 GUEN037G96
         K18N01D  C2018 07 08.46820 03 12 35.10 +41 11 57.9          19.4 GUEN037G96
         K18N01D  C2018 07 08.47027 03 12 35.64 +41 12 09.0          18.9 GUEN037G96
         K18N01D KC2018 07 09.04112 03 15 01.70 +42 02 35.1          19.1 RqEN037A17
         K18N01D KC2018 07 09.05549 03 15 05.48 +42 03 51.6          18.9 RqEN037A17
         K18N01D KC2018 07 09.06732 03 15 08.52 +42 04 54.7          18.6 RqEN037A17
         K18N01D KC2018 07 10.38632 03 21 02.16 +43 59 50.4          19.6 GUEN037734
         K18N01D KC2018 07 10.39397 03 21 04.23 +44 00 30.3          19.6 GUEN037734
         K18N01D KC2018 07 10.39905 03 21 05.62 +44 00 56.8          19.3 GUEN037734
    
    Observer details:
    204 Schiaparelli Observatory.  Observer L. Buzzi.  0.60-m f/4.64 reflector
        + CCD.
    734 Farpoint Observatory.  Observer G. Hug.  0.69-m reflector + CCD.
    A17 Guidestar Observatory, Weinheim.  Observers M. Emmerich, S. Melchert.
        0.36-m f/6 Schmidt-Cassegrain + CCD.
    G96 Mt. Lemmon Survey.  Observer G. J. Leonard.  Measurers B. M. Africano,
        E. J. Christensen, D. C. Fuls, A. R. Gibbs, A. D. Grauer, H. Groeller,
        J. A. Johnson, R. A. Kowalski, S. M. Larson, G. J. Leonard, R. L. Seaman,
        F. C. Shelly.  1.5-m reflector + 10K CCD.
    H21 Astronomical Research Observatory, Westfield.  Observer R. Holmes.
        Measurers S. Foglia, L. Buzzi, T. Linder, R. Holmes.  0.61-m f/4.5
        astrograph + CCD.
    J95 Great Shefford.  Observer P. Birtwhistle.  0.40-m f/6.0 Schmidt-Cassegrain
        + CCD.
    L01 Visnjan Observatory, Tican.  Observers K. Korlevic, D. Marusic,
        E. Pettarin.  Measurer E. Pettarin.  1.0-m f/2.9 reflector + CCD.
    
    Orbital elements:
    2018 ND1                                                 Earth MOID = 0.1463 AU
    Epoch 2018 Mar. 23.0 TT = JDT 2458200.5                 MPC
    M 335.31308              (2000.0)            P               Q
    n   0.25751862     Peri.    9.31220     +0.89457460     +0.06242734
    a   2.4467915      Node   330.77201     -0.44567044     +0.05065452
    e   0.6483582      Incl.   64.99991     -0.03337873     +0.99676324
    P   3.83           H   17.5           G   0.15           U   7
    Residuals in seconds of arc
    180707 G96  0.1-  0.0     180708 204  0.0   0.1-    180708 G96  0.0   0.1+
    180707 G96  0.1-  0.1+    180708 204  0.5+  0.2-    180708 G96  0.1+  0.2+
    180707 G96  0.3-  0.2+    180708 J95  0.3-  0.1+    180708 G96  0.3+  0.2+
    180707 G96  0.5+  0.9-    180708 J95  0.2+  0.1+    180709 A17  0.2-  0.7-
    180708 L01  0.1+  0.3+    180708 H21  0.2+  0.1-    180709 A17  0.3+  0.5-
    180708 L01  0.1-  0.2-    180708 H21  0.1+  0.0     180709 A17  0.1-  0.2-
    180708 L01  0.4-  0.5-    180708 H21  0.2-  0.0     180710 734  0.3+  0.1-
    180708 204  0.3-  0.4+    180708 H21  0.2-  0.4+    180710 734  0.1-  0.1+
    180708 L01  0.2+  0.1+    180708 G96  0.3-  0.1-    180710 734  0.2-  0.2+
    
    Ephemeris:
    2018 ND1                 a,e,i = 2.45, 0.65, 65                  q = 0.8604
    Date    TT    R. A. (2000) Decl.     Delta      r     Elong.  Phase     V
    2018 06 10    02 03 47.1 -01 14 53   1.0407  0.8961    51.7    62.7    19.6
    ...
    2018 06 25    02 30 09.7 +20 15 36   0.9547  0.8608    51.7    67.9    19.5
    ...
    2018 07 03    02 52 13.4 +32 50 13   0.9476  0.8652    52.1    68.1    19.5
    ...
    2018 07 09    03 14 50.3 +41 59 00   0.9637  0.8791    52.6    66.8    19.5
    2018 07 10    03 19 15.5 +43 26 27   0.9682  0.8823    52.7    66.5    19.5
    2018 07 11    03 23 53.3 +44 52 21   0.9731  0.8857    52.8    66.1    19.5
    ...
    2018 07 17    03 56 41.4 +52 48 00   1.0124  0.9106    53.3    63.6    19.6
    ...
    2018 07 25    04 56 26.7 +61 03 03   1.0865  0.9548    53.9    59.3    19.7
    ...
    2018 08 09    07 29 28.3 +67 33 07   1.2648  1.0629    54.3    50.7    20.0
    
    A. U. Tomatic                (C) Copyright 2018 MPC           M.P.E.C. 2018-N37
    

    Read MPEC 2018-N36 Read MPEC 2018-N38


    MPEC number:

    Enter an MPEC number in one of the following forms:

    • 1997-B01 (the full form)
    • J97B01 (the packed version of the full form)
    • B01 (the abbreviated form)